"Pseudo-MPEC" for P11JWp2

Created 2023 Sep 27 0:22:12 UT using Find_Orb

Click here for an explanation of pseudo-MPECs

 
 Astrometry: 
     P11JWp2* C2023 09 18iCdHJ#@!7GCKc3(nl+Z#VPf_SQ3PB8?eBjZbkq/h55Qqn4L3d8rqF51
     P11JWp2  C2023 09 18C`GexA*U=t5Ye`BTPW_AstrometryRN_!QsM8?6redacted;/bv1F51
     P11JWp2  C2023 09 18MO,1*I,s(KYJY/\?b0$c;RjYj/JSKROJcYsoRUAclickfZus7LRTF51
     P11JWp2  C2023 09 18B*D!N-%[X0UJtixCu-dag?7)8N0j]hereRN'-forVexplanationF51
     P11JWp2 KC2023 09 19.12670622 06 11.840+22 46 16.70   ~9J47       VNEOCPV06
     P11JWp2 KC2023 09 19.13464922 06 11.360+22 46 10.60   ~9J47       VNEOCPV06
     P11JWp2 KC2023 09 19.15052422 06 10.480+22 46 00.40   ~9J47       VNEOCPV06

Station data:
(F51) Pan-STARRS 1, Haleakala  (N20.707234 W156.255910)  US/Hawaii.
   Observers J. Bulger, T. Lowe, A. Schultz, M. Willman. Measurers K.
   Chambers, S. Chastel, T. de Boer, L. Denneau, J. Fairlamb, H. Flewelling,
   M. Huber, C.-C. Lin, E. Magnier, Y. Ramanjooloo, R. Wainscoat, R. Weryk.
   1.8-m Ritchey-Chrétien + CCD.
(V06) Catalina Sky Survey-Kuiper  (N32.416844 W110.732550)  US/Arizona.
   Observers T. A. Pruyne, B. M. Africano, E. J. Christensen, G. A. Farneth,
   D. C. Fuls, A. R. Gibbs, A. D. Grauer, H. Gröller, J. A. Johnson, R. A.
   Kowalski, S. M. Larson, G. J. Leonard, D. Rankin, R. L. Seaman, F. C.
   Shelly, K. W. Wierzchoś. 1.55-m reflector + CCD.

Orbital elements:  P11JWp2
   Perihelion 2022 Jun 25.83235 +/- 280 TT = 19:58:35 (JD 2459756.33235)
Epoch 2023 Sep 19.0 TT = JDT 2460206.5   Earth MOID: 0.6975      AutoNEOCP
M 168.81488029 +/- 100              (J2000 ecliptic)
n   0.37500447 +/- 0.0674           Peri.  285.13518 +/- 52
a   1.90448877 +/- 0.228            Node   251.80316 +/- 20
e   0.1529351 +/- 0.133             Incl.   18.25426 +/- 2.8
P   2.63/959.97d           H 19.62  G  0.15   U 11.0  SR
q 1.61322554 +/- 0.168    Q 2.19575200 +/- 0.723
From 7 observations 2023 Sept. 18-19 (20.5 hr); mean residual 0".22
Residuals in arcseconds: 
230918 F51  .10+  .03-    230918 F51  .26-  .12-    230919 V06  .14-  .17+    
230918 F51  .15+  .07-    230919 V06  .38+  .27+    
230918 F51  .00   .22+    230919 V06  .17-  .44-    

Ephemerides (geocentric):
Date (UTC) HH   RA             Dec           delta  r     elong  mag " sig PA
---- --------  ------------   ------------  ------ ------ -----  --- --------
2023 09 27 00  22 00 06.598   +21 09 49.71  1.3136 2.1935 142.2 22.8  272 144
2023 09 27 01  22 00 04.980   +21 09 17.51  1.3138 2.1935 142.2 22.8  275 144
2023 09 27 02  22 00 03.366   +21 08 45.30  1.3139 2.1935 142.1 22.8  278 144
2023 09 27 03  22 00 01.755   +21 08 13.07  1.3141 2.1935 142.1 22.8  280 144
2023 09 27 04  22 00 00.148   +21 07 40.84  1.3143 2.1936 142.1 22.8  283 144
2023 09 27 05  21 59 58.544   +21 07 08.59  1.3145 2.1936 142.1 22.8  286 144
2023 09 27 06  21 59 56.943   +21 06 36.33  1.3147 2.1936 142.1 22.8  289 144
2023 09 27 07  21 59 55.346   +21 06 04.06  1.3148 2.1936 142.0 22.8  291 145
2023 09 27 08  21 59 53.753   +21 05 31.77  1.3150 2.1936 142.0 22.8  294 145
2023 09 27 09  21 59 52.163   +21 04 59.48  1.3152 2.1936 142.0 22.8  297 145
2023 09 27 10  21 59 50.576   +21 04 27.17  1.3154 2.1936 142.0 22.8  300 145
2023 09 27 11  21 59 48.993   +21 03 54.85  1.3156 2.1936 141.9 22.8  302 145
2023 09 27 12  21 59 47.414   +21 03 22.52  1.3157 2.1936 141.9 22.8  305 145
2023 09 27 13  21 59 45.838   +21 02 50.18  1.3159 2.1936 141.9 22.8  308 145
2023 09 27 14  21 59 44.265   +21 02 17.82  1.3161 2.1936 141.9 22.8  311 145
2023 09 27 15  21 59 42.696   +21 01 45.46  1.3163 2.1936 141.8 22.8  314 145
2023 09 27 16  21 59 41.130   +21 01 13.08  1.3165 2.1937 141.8 22.8  316 145
2023 09 27 17  21 59 39.568   +21 00 40.69  1.3167 2.1937 141.8 22.8  319 145
2023 09 27 18  21 59 38.010   +21 00 08.29  1.3168 2.1937 141.8 22.8  322 145
2023 09 27 19  21 59 36.454   +20 59 35.88  1.3170 2.1937 141.7 22.8  325 145
2023 09 27 20  21 59 34.903   +20 59 03.46  1.3172 2.1937 141.7 22.8  328 145
2023 09 27 21  21 59 33.354   +20 58 31.03  1.3174 2.1937 141.7 22.8  331 145
2023 09 27 22  21 59 31.810   +20 57 58.58  1.3176 2.1937 141.7 22.8  334 145
2023 09 27 23  21 59 30.269   +20 57 26.13  1.3178 2.1937 141.6 22.8  337 145
2023 09 28 00  21 59 28.731   +20 56 53.66  1.3179 2.1937 141.6 22.8  340 145
2023 09 28 01  21 59 27.197   +20 56 21.18  1.3181 2.1937 141.6 22.8  343 146
2023 09 28 02  21 59 25.666   +20 55 48.70  1.3183 2.1937 141.6 22.8  346 146
2023 09 28 03  21 59 24.139   +20 55 16.20  1.3185 2.1937 141.5 22.8  349 146
2023 09 28 04  21 59 22.615   +20 54 43.69  1.3187 2.1937 141.5 22.8  352 146
2023 09 28 05  21 59 21.095   +20 54 11.17  1.3189 2.1938 141.5 22.8  355 146
2023 09 28 06  21 59 19.578   +20 53 38.64  1.3191 2.1938 141.5 22.8  358 146
2023 09 28 07  21 59 18.065   +20 53 06.10  1.3193 2.1938 141.4 22.8  361 146
2023 09 28 08  21 59 16.556   +20 52 33.54  1.3194 2.1938 141.4 22.8  364 146
2023 09 28 09  21 59 15.050   +20 52 00.98  1.3196 2.1938 141.4 22.8  367 146
2023 09 28 10  21 59 13.547   +20 51 28.41  1.3198 2.1938 141.4 22.8  370 146
2023 09 28 11  21 59 12.048   +20 50 55.83  1.3200 2.1938 141.3 22.8  373 146
2023 09 28 12  21 59 10.552   +20 50 23.24  1.3202 2.1938 141.3 22.8  376 146
2023 09 28 13  21 59 09.060   +20 49 50.63  1.3204 2.1938 141.3 22.8  379 146
2023 09 28 14  21 59 07.572   +20 49 18.02  1.3206 2.1938 141.3 22.8  382 146
2023 09 28 15  21 59 06.087   +20 48 45.40  1.3208 2.1938 141.2 22.8  385 146
2023 09 28 16  21 59 04.605   +20 48 12.76  1.3210 2.1938 141.2 22.8  388 146
2023 09 28 17  21 59 03.128   +20 47 40.12  1.3212 2.1939 141.2 22.8  391 146
2023 09 28 18  21 59 01.653   +20 47 07.47  1.3214 2.1939 141.2 22.8  395 147
2023 09 28 19  21 59 00.182   +20 46 34.81  1.3215 2.1939 141.1 22.8  398 147
2023 09 28 20  21 58 58.715   +20 46 02.13  1.3217 2.1939 141.1 22.8  401 147
2023 09 28 21  21 58 57.251   +20 45 29.45  1.3219 2.1939 141.1 22.8  404 147
2023 09 28 22  21 58 55.791   +20 44 56.76  1.3221 2.1939 141.1 22.8  407 147
2023 09 28 23  21 58 54.334   +20 44 24.06  1.3223 2.1939 141.0 22.8  410 147